Weather in Maryino

Russia / Kostroma Oblast     57°50′43″N   43°19′24″E
temp.,
°C
wind,
m/s
gust,
m/s
humid.,
%
clouds,
%
prec.,
mm/h
press.,
hPa
HPBL,
m
24 june, thu
thu2400:00+21wnw11765 0.0 102011
03:00+20w11825 0.0 102011
06:00+24w23746 0.0 1020140
09:00+30w24525 0.0 1019705
12:00+33w34353 0.0 10181927
15:00+35w45305 0.0 10172464
18:00+32w36425 0.0 1016761
21:00+24w237269 0.0 101653
25 june, fri
fri2500:00+23wsw2573100 0.0 101685
03:00+21w24786 0.0 101682
06:00+24wsw137375 0.0 1015136
09:00+30wsw365160 0.0 1015700
12:00+32w4740100 0.0 10151803
15:00+32w464095 0.0 10141931
18:00+30w455158 0.0 10131174
21:00+23nw22765 0.0 101324
26 june, sat
sat2600:00+21nnw22755 0.0 101413
03:00+19sw118741 0.1 101311
06:00+23s128024 0.0 1013140
09:00+27wsw35545 0.0 1013862
12:00+31wsw34398 0.0 10121630
15:00+33wsw343637 0.0 10112184
18:00+31wsw35475 0.0 10111052
21:00+24sw11740 0.0 101011
27 june, sun
sun2700:00+21wnw229496 1.8 101130
03:00+20nnw1194100 3.1 101212
06:00+22wnw12885 0.0 1012100
09:00+28wnw12565 0.0 1012690
12:00+32wnw344116 0.0 10122396
15:00+29n245698 0.0 1012145
18:00+30ssw115433 0.0 1011619
21:00+25s2373100 0.0 101275
28 june, mon
mon2800:00+20wsw2497100 1.7 101290
03:00+19sw229574 1.7 101227
06:00+22ssw239124 0.0 1012155
09:00+27s236049 0.0 1012662
12:00+31ssw334567 0.0 10111366
15:00+31s33455 0.0 10111399
18:00+30s35548 0.0 1010648
21:00+25sw377394 0.1 1010197